TimeEDT,TemperatureF,Dew PointF,Humidity,Sea Level PressureIn,VisibilityMPH,Wind Direction,Wind SpeedMPH,Gust SpeedMPH,PrecipitationIn,Events,Conditions,WindDirDegrees,DateUTC
12:53 AM,73.0,72.0,96,29.93,4.0,Calm,Calm,-,N/A,,Clear,0,2013-07-28 04:53:00
1:53 AM,73.0,72.0,96,29.94,5.0,Calm,Calm,-,N/A,,Partly Cloudy,0,2013-07-28 05:53:00
2:53 AM,72.0,71.1,97,29.93,6.0,Calm,Calm,-,N/A,,Scattered Clouds,0,2013-07-28 06:53:00
3:53 AM,72.0,71.1,97,29.93,4.0,Calm,Calm,-,N/A,,Clear,0,2013-07-28 07:53:00
4:42 AM,71.6,69.8,94,29.94,1.8,Calm,Calm,-,N/A,,Scattered Clouds,0,2013-07-28 08:42:00
4:53 AM,71.1,71.1,100,29.94,1.0,Calm,Calm,-,N/A,,Scattered Clouds,0,2013-07-28 08:53:00
5:05 AM,71.6,71.6,100,29.94,2.5,Calm,Calm,-,N/A,,Partly Cloudy,0,2013-07-28 09:05:00
5:15 AM,71.6,71.6,100,29.94,4.0,Calm,Calm,-,N/A,,Partly Cloudy,0,2013-07-28 09:15:00
5:37 AM,69.8,69.8,100,29.95,1.8,Calm,Calm,-,N/A,,Mostly Cloudy,0,2013-07-28 09:37:00
5:42 AM,69.8,69.8,100,29.95,0.8,Calm,Calm,-,N/A,,Mostly Cloudy,0,2013-07-28 09:42:00
5:53 AM,70.0,70.0,100,29.95,1.0,Calm,Calm,-,N/A,,Mostly Cloudy,0,2013-07-28 09:53:00
5:59 AM,71.6,69.8,94,29.95,3.0,Calm,Calm,-,N/A,,Mostly Cloudy,0,2013-07-28 09:59:00
6:15 AM,69.8,69.8,100,29.95,1.8,Calm,Calm,-,0.01,,Mostly Cloudy,0,2013-07-28 10:15:00
6:24 AM,71.6,69.8,94,29.96,0.8,Calm,Calm,-,0.01,,Mist,0,2013-07-28 10:24:00
6:28 AM,71.6,69.8,94,29.96,1.2,Calm,Calm,-,0.01,,Partly Cloudy,0,2013-07-28 10:28:00
6:33 AM,71.6,69.8,94,29.96,3.0,Calm,Calm,-,0.01,,Scattered Clouds,0,2013-07-28 10:33:00
6:42 AM,71.6,69.8,94,29.96,6.0,Calm,Calm,-,0.01,,Mostly Cloudy,0,2013-07-28 10:42:00
6:53 AM,71.1,71.1,100,29.96,0.5,Calm,Calm,-,0.01,Fog,Fog,0,2013-07-28 10:53:00
7:53 AM,72.0,71.1,97,29.98,0.5,Variable,5.8,-,N/A,Fog,Fog,0,2013-07-28 11:53:00
7:59 AM,71.6,71.6,100,29.98,1.0,Calm,Calm,-,N/A,,Mist,0,2013-07-28 11:59:00
8:17 AM,73.4,71.6,94,29.99,2.5,Calm,Calm,-,N/A,,Scattered Clouds,0,2013-07-28 12:17:00
8:53 AM,73.9,73.0,97,29.99,2.5,Calm,Calm,-,N/A,,Scattered Clouds,0,2013-07-28 12:53:00
9:53 AM,79.0,73.0,82,29.98,8.0,Calm,Calm,-,N/A,,Clear,0,2013-07-28 13:53:00
10:53 AM,82.9,72.0,69,29.99,10.0,Calm,Calm,-,N/A,,Clear,0,2013-07-28 14:53:00
11:53 AM,84.9,69.1,59,29.99,10.0,West,3.5,-,N/A,,Partly Cloudy,260,2013-07-28 15:53:00
12:53 PM,87.1,68.0,53,29.98,10.0,WSW,6.9,-,N/A,,Clear,250,2013-07-28 16:53:00
1:53 PM,89.1,68.0,50,29.98,10.0,SW,6.9,-,N/A,,Clear,230,2013-07-28 17:53:00
2:53 PM,90.0,68.0,48,29.96,10.0,West,6.9,-,N/A,,Partly Cloudy,270,2013-07-28 18:53:00
3:53 PM,90.0,69.1,50,29.95,10.0,West,3.5,-,N/A,,Clear,270,2013-07-28 19:53:00
4:53 PM,89.1,68.0,50,29.94,10.0,WSW,6.9,-,N/A,,Clear,240,2013-07-28 20:53:00
5:53 PM,89.1,69.1,52,29.94,10.0,SSW,6.9,-,N/A,,Clear,210,2013-07-28 21:53:00
6:53 PM,88.0,70.0,55,29.94,10.0,SSW,6.9,-,N/A,,Clear,210,2013-07-28 22:53:00
7:53 PM,84.0,71.1,65,29.97,10.0,Calm,Calm,-,N/A,,Clear,0,2013-07-28 23:53:00
8:53 PM,78.1,73.0,84,29.99,10.0,Calm,Calm,-,N/A,,Clear,0,2013-07-29 00:53:00
9:53 PM,75.0,73.0,94,30.00,9.0,Calm,Calm,-,N/A,,Clear,0,2013-07-29 01:53:00
10:53 PM,75.9,73.9,94,30.01,9.0,Calm,Calm,-,N/A,,Scattered Clouds,0,2013-07-29 02:53:00
11:53 PM,77.0,72.0,84,30.01,10.0,SSW,4.6,-,N/A,,Mostly Cloudy,200,2013-07-29 03:53:00